[[{"header":{"parameterUnit":"m.s-1","parameterCategory":1,"la1":30.2992,"la2":30.254,"lo1":-89.0895,"lo2":-89.0443,"dy":0.0025,"dx":0.0025,"nx":19,"ny":19,"refTime":"2026-04-15T21:00:00:Z","depth":0,"parameterNumber":2,"parameterNumberName":"U-component_of_WINDS"},"data":[0,0,0,-0.9729,-0.9729,-0.9702,-0.9702,-0.967,-0.967,0,0,0,0,0,0,0,0,0,0,0,-0.9738,-0.9738,-0.9729,-0.9728,-0.9702,-0.9702,-0.967,-0.967,0,0,0,0,0,0,0,0,0,0,0,-0.9738,-0.9738,-0.9737,-0.9728,-0.9702,-0.9702,-0.967,-0.9689,0,0,0,0,0,0,0,0,0,0,-0.9715,-0.9724,-0.9738,-0.9737,-0.9728,-0.9702,-0.9702,-0.969,-0.9688,-0.9683,0,-0.9678,0,-0.9673,-0.9668,-0.9668,0,0,0,-0.9728,-0.9725,-0.9718,-0.9737,-0.9728,-0.9702,-0.9714,-0.9689,-0.9687,-0.968,-0.9677,-0.9676,-0.9673,-0.9667,-0.9667,-0.9639,-0.9639,0,0,-0.9729,-0.9733,-0.9719,-0.9716,-0.972,-0.9714,-0.9713,-0.9688,-0.9685,-0.9677,-0.9675,-0.9672,-0.9667,-0.9667,-0.964,-0.9639,0,0,0,-0.9734,-0.9734,-0.9727,-0.9717,-0.9712,-0.9714,-0.9712,-0.9686,-0.9684,-0.9675,-0.9672,-0.9667,-0.9667,-0.964,-0.964,-0.9639,0,0,0,-0.9735,-0.9737,-0.9728,-0.973,-0.9713,-0.9699,-0.9711,-0.9685,-0.9682,-0.9672,-0.9667,-0.9666,-0.964,-0.964,-0.9639,-0.9638,0,0,0,-0.9739,-0.9738,-0.9734,-0.973,-0.9719,-0.9699,-0.9695,-0.9684,-0.968,-0.9668,-0.9666,-0.964,-0.964,-0.9639,-0.9638,-0.9632,0,0,0,-0.9745,-0.9733,-0.9734,-0.972,-0.9719,-0.9699,-0.9695,-0.968,-0.9669,-0.9667,-0.964,-0.964,-0.9639,-0.9638,-0.9632,-0.9628,-0.9626,0,0,-0.9732,-0.9731,-0.9723,-0.9723,-0.9704,-0.9703,-0.9684,-0.9669,-0.9664,-0.9648,-0.9648,-0.9639,-0.9638,-0.9632,-0.9617,-0.9616,0,0,0,-0.972,-0.9714,-0.9708,-0.9698,-0.9687,-0.9679,-0.9667,-0.9662,-0.9649,-0.9657,-0.9635,-0.9634,-0.9631,-0.9629,-0.9628,-0.9625,-0.9639,-0.9639,-0.9639,-0.9706,-0.9701,-0.9687,-0.968,-0.9671,-0.966,-0.9652,-0.9644,-0.9641,-0.9637,-0.9631,-0.9623,-0.962,-0.9619,-0.9616,-0.9629,-0.9629,-0.9629,-0.9629,-0.9686,-0.9677,-0.9676,-0.9661,-0.9657,-0.9645,-0.9636,-0.9635,-0.9623,-0.9626,-0.9622,-0.9625,-0.9618,-0.9615,-0.9629,-0.9629,-0.9629,-0.9629,-0.9629,-0.9676,-0.9671,-0.9667,-0.9654,-0.9644,-0.9638,-0.9628,-0.9624,-0.962,-0.9617,-0.9612,-0.9612,-0.9612,-0.9615,-0.9615,-0.9615,-0.9615,-0.9615,-0.9615,-0.9668,-0.9663,-0.9654,-0.9645,-0.9639,-0.9631,-0.9623,-0.9617,-0.961,-0.9609,-0.9608,-0.9607,-0.9619,-0.9622,-0.9615,-0.9615,-0.9615,-0.9615,-0.9615,-0.9649,-0.9653,-0.9641,-0.9635,-0.9625,-0.9617,-0.9613,-0.9603,-0.9598,-0.9594,-0.9593,-0.9603,-0.9602,-0.9602,-0.9605,-0.9594,-0.9594,-0.9594,-0.9594,-0.964,-0.964,-0.9628,-0.962,-0.9612,-0.9608,-0.9596,-0.959,-0.9585,-0.9582,-0.9583,-0.9586,-0.9587,-0.9586,-0.9587,-0.9589,-0.9575,-0.9575,-0.9575,-0.9629,-0.9628,-0.9618,-0.9613,-0.9606,-0.9599,-0.9588,-0.958,-0.9574,-0.9574,-0.958,-0.9581,-0.9586,-0.9588,-0.9586,-0.9588,-0.9592,0,0]},{"header":{"parameterUnit":"m.s-1","parameterCategory":1,"la1":30.2992,"la2":30.254,"lo1":-89.0895,"lo2":-89.0443,"dy":0.0025,"dx":0.0025,"nx":19,"ny":19,"refTime":"2026-04-15T21:00:00:Z","depth":0,"parameterNumber":3,"parameterNumberName":"V-component_of_WINDS"},"data":[0,0,0,3.6122,3.612,3.6057,3.6057,3.5972,3.5971,0,0,0,0,0,0,0,0,0,0,0,3.6141,3.6141,3.6122,3.612,3.6057,3.6057,3.5972,3.5971,0,0,0,0,0,0,0,0,0,0,0,3.6141,3.6141,3.614,3.612,3.6057,3.6057,3.5972,3.602,0,0,0,0,0,0,0,0,0,0,3.6082,3.6102,3.6141,3.614,3.612,3.6057,3.6057,3.6023,3.6017,3.6,0,3.5987,0,3.5978,3.5965,3.5965,0,0,0,3.6119,3.6106,3.6089,3.614,3.6119,3.6057,3.6085,3.602,3.6014,3.5993,3.5986,3.5983,3.5977,3.5965,3.5964,3.5876,3.5875,0,0,3.6122,3.6129,3.6093,3.6085,3.6098,3.6087,3.6083,3.6016,3.6008,3.5986,3.5981,3.5975,3.5964,3.5963,3.5876,3.5875,0,0,0,3.6133,3.6132,3.6116,3.6089,3.6078,3.6085,3.6081,3.6011,3.6005,3.598,3.5974,3.5964,3.5963,3.5876,3.5876,3.5867,0,0,0,3.6135,3.6138,3.6118,3.6121,3.6079,3.6044,3.6077,3.601,3.6002,3.5975,3.5964,3.5962,3.5877,3.5876,3.5868,3.5861,0,0,0,3.6145,3.614,3.6131,3.6122,3.6096,3.6045,3.6036,3.6008,3.5999,3.5965,3.5962,3.5877,3.5876,3.5869,3.5862,3.584,0,0,0,3.6156,3.6123,3.6131,3.6091,3.6096,3.6042,3.6036,3.5994,3.5964,3.5963,3.5877,3.5876,3.5869,3.5863,3.5841,3.5822,3.5815,0,0,3.6118,3.6118,3.6094,3.61,3.6046,3.6051,3.5994,3.5958,3.5946,3.5899,3.5897,3.5868,3.5863,3.584,3.5775,3.577,0,0,0,3.6084,3.6067,3.6051,3.6024,3.5998,3.5974,3.5947,3.5933,3.5893,3.5925,3.5854,3.585,3.5836,3.5827,3.5822,3.581,3.5872,3.5872,3.5872,3.6038,3.6028,3.5987,3.5969,3.5943,3.5915,3.5892,3.5869,3.5864,3.5847,3.5833,3.5795,3.5784,3.5781,3.5768,3.5823,3.5822,3.5822,3.5822,3.598,3.5953,3.595,3.5909,3.5897,3.5861,3.5832,3.583,3.5793,3.5805,3.5792,3.5805,3.5775,3.5763,3.5822,3.5822,3.5822,3.5822,3.5822,3.5948,3.5933,3.592,3.5881,3.5851,3.5833,3.5798,3.5788,3.5778,3.5765,3.5748,3.5749,3.5747,3.5758,3.5758,3.5758,3.5758,3.5758,3.5758,3.592,3.5905,3.5879,3.5849,3.5831,3.5805,3.5778,3.5758,3.5733,3.5728,3.5728,3.5724,3.5775,3.5788,3.5756,3.5756,3.5756,3.5757,3.5757,3.5863,3.5875,3.5835,3.5817,3.578,3.5751,3.5739,3.5701,3.5683,3.5666,3.5665,3.5705,3.5703,3.5707,3.5717,3.5668,3.5668,3.5668,3.5668,3.5836,3.5836,3.5792,3.5764,3.5735,3.5721,3.5672,3.565,3.5628,3.5616,3.5621,3.5634,3.5638,3.5634,3.5639,3.5649,3.5584,3.5584,3.5584,3.58,3.5797,3.5759,3.5741,3.5712,3.5686,3.564,3.5605,3.5582,3.558,3.5605,3.5609,3.563,3.5638,3.5635,3.5643,3.566,0,0]}]]